Location: Stara Lesna
(49.1528°N, 20.2911°E)
Time: 10:08:34
(UTC+02:00)

Resurs 1-4 Rocket - Pass Details

Date: 13 July 2020
Orbit: 800 x 814 km, 98.6° (Epoch: 05 August)

Event Time Altitude Azimuth Distance (km) Brightness Sun altitude
Rises 02:05:14 0° 17° (NNE) 3,350 7.1 -16.8°
Reaches altitude 10° 02:07:37 10° 21° (NNE) 2,412 5.9 -16.7°
Maximum altitude 02:12:54 60° 101° (E) 924 2.4 -16.4°
Enters shadow 02:16:14 22° 175° (S) 1,683 3.2 -16.2°
